Private Wetterstation Wechselburg
Wetterdaten: Sonntag, 02.09.2012
Datum Zeit Temp. +2m Bodentemp. Temp.+5cm Temp. Wind Windchill X Diff Temp. Feuchte +2m Feuchte +5cm Sonnenschein Luftdruck Regen Wind Richtung Richtung Sonnenschein UV Taupunkt Windchill Windben
02.09.2012 00:02 10,5 C 22,0 C 11,6 C 10,4 C 10,3 C 0,0 C 89 % 92 % 0 % 1024,7 hPa 0,0 l/m 0,0 km/h (0 Bft) O-NO 67 0 min 0,0 UV-I 8,8 C 10,3 C 0,0 km/h (0 Bft)
02.09.2012 00:07 10,4 C 21,9 C 11,6 C 10,3 C 10,2 C 0,0 C 89 % 91 % 0 % 1024,7 hPa 0,0 l/m 0,0 km/h (0 Bft) N 360 0 min 0,0 UV-I 8,7 C 10,2 C 0,0 km/h (0 Bft)
02.09.2012 00:12 10,4 C 21,9 C 11,6 C 10,3 C 10,2 C 0,0 C 89 % 92 % 0 % 1024,7 hPa 0,0 l/m 0,0 km/h (0 Bft) NW 315 0 min 0,0 UV-I 8,7 C 10,2 C 0,0 km/h (0 Bft)
02.09.2012 00:17 10,3 C 21,9 C 11,5 C 10,3 C 10,2 C 0,0 C 89 % 92 % 0 % 1024,7 hPa 0,0 l/m 0,0 km/h (0 Bft) O-NO 67 0 min 0,0 UV-I 8,6 C 10,2 C 0,0 km/h (0 Bft)
02.09.2012 00:22 10,2 C 21,9 C 11,5 C 10,2 C 10,1 C 0,0 C 89 % 92 % 0 % 1025,1 hPa 0,0 l/m 0,0 km/h (0 Bft) N 360 0 min 0,0 UV-I 8,5 C 10,1 C 0,0 km/h (0 Bft)
02.09.2012 00:27 10,2 C 22,0 C 11,5 C 10,1 C 10,0 C 0,0 C 89 % 92 % 0 % 1025,1 hPa 0,0 l/m 0,0 km/h (0 Bft) N 360 0 min 0,0 UV-I 8,5 C 10,0 C 0,0 km/h (0 Bft)
02.09.2012 00:32 10,1 C 22,0 C 11,5 C 10,1 C 10,0 C 0,0 C 89 % 92 % 0 % 1025,1 hPa 0,0 l/m 0,0 km/h (0 Bft) N 360 0 min 0,0 UV-I 8,4 C 10,0 C 0,0 km/h (0 Bft)
02.09.2012 00:37 10,0 C 22,0 C 11,5 C 10,0 C 9,9 C 0,0 C 89 % 92 % 0 % 1025,1 hPa 0,0 l/m 0,0 km/h (0 Bft) O-NO 67 0 min 0,0 UV-I 8,3 C 9,9 C 0,0 km/h (0 Bft)
02.09.2012 00:42 10,1 C 22,0 C 11,3 C 10,0 C 9,9 C 0,0 C 89 % 92 % 0 % 1024,9 hPa 0,0 l/m 0,0 km/h (0 Bft) O-NO 67 0 min 0,0 UV-I 8,4 C 9,9 C 0,0 km/h (0 Bft)
02.09.2012 00:47 10,0 C 22,0 C 11,2 C 9,9 C 9,8 C 0,0 C 89 % 92 % 0 % 1024,9 hPa 0,0 l/m 0,0 km/h (0 Bft) W-SW 247 0 min 0,0 UV-I 8,3 C 9,8 C 0,0 km/h (0 Bft)
02.09.2012 00:52 9,8 C 21,9 C 11,3 C 9,8 C 9,7 C 0,0 C 89 % 92 % 0 % 1024,9 hPa 0,0 l/m 0,0 km/h (0 Bft) SO 135 0 min 0,0 UV-I 8,1 C 9,7 C 0,0 km/h (0 Bft)
02.09.2012 00:57 9,9 C 21,9 C 11,1 C 9,9 C 9,8 C 0,0 C 89 % 92 % 0 % 1024,9 hPa 0,0 l/m 0,0 km/h (0 Bft) SO 135 0 min 0,0 UV-I 8,2 C 9,8 C 0,0 km/h (0 Bft)
02.09.2012 01:02 9,9 C 22,0 C 11,1 C 9,9 C 9,8 C 0,0 C 89 % 92 % 0 % 1024,9 hPa 0,0 l/m 0,0 km/h (0 Bft) O 90 0 min 0,0 UV-I 8,2 C 9,8 C 0,0 km/h (0 Bft)
02.09.2012 01:07 9,9 C 22,0 C 11,1 C 9,9 C 9,8 C 0,0 C 90 % 92 % 0 % 1024,9 hPa 0,0 l/m 0,0 km/h (0 Bft) O-NO 67 0 min 0,0 UV-I 8,3 C 9,8 C 0,0 km/h (0 Bft)
02.09.2012 01:12 9,7 C 21,9 C 11,1 C 9,7 C 9,7 C 0,0 C 90 % 92 % 0 % 1024,9 hPa 0,0 l/m 0,0 km/h (0 Bft) NW 315 0 min 0,0 UV-I 8,1 C 9,7 C 0,0 km/h (0 Bft)
02.09.2012 01:17 9,6 C 21,9 C 10,9 C 9,6 C 9,6 C 0,0 C 90 % 91 % 0 % 1024,9 hPa 0,0 l/m 0,0 km/h (0 Bft) N-NW 337 0 min 0,0 UV-I 8,0 C 9,6 C 0,0 km/h (0 Bft)
02.09.2012 01:22 9,7 C 21,9 C 10,9 C 9,6 C 9,5 C 0,0 C 90 % 91 % 0 % 1024,9 hPa 0,0 l/m 0,0 km/h (0 Bft) W 270 0 min 0,0 UV-I 8,1 C 9,5 C 0,0 km/h (0 Bft)
02.09.2012 01:27 9,5 C 21,9 C 10,8 C 9,5 C 9,4 C 0,0 C 90 % 91 % 0 % 1024,9 hPa 0,0 l/m 0,0 km/h (0 Bft) W-NW 292 0 min 0,0 UV-I 7,9 C 9,4 C 0,0 km/h (0 Bft)
02.09.2012 01:32 9,5 C 21,9 C 10,9 C 9,4 C 9,3 C 0,0 C 90 % 92 % 0 % 1024,9 hPa 0,0 l/m 0,0 km/h (0 Bft) N-NO 22 0 min 0,0 UV-I 7,9 C 9,3 C 0,0 km/h (0 Bft)
02.09.2012 01:37 9,4 C 21,8 C 10,8 C 9,4 C 9,3 C 0,0 C 90 % 92 % 0 % 1024,9 hPa 0,0 l/m 0,0 km/h (0 Bft) W-NW 292 0 min 0,0 UV-I 7,8 C 9,3 C 0,0 km/h (0 Bft)
02.09.2012 01:42 9,4 C 21,9 C 10,7 C 9,3 C 9,2 C 0,0 C 90 % 92 % 0 % 1024,9 hPa 0,0 l/m 0,0 km/h (0 Bft) W 270 0 min 0,0 UV-I 7,8 C 9,2 C 0,0 km/h (0 Bft)
02.09.2012 01:47 9,3 C 21,8 C 10,7 C 9,3 C 9,2 C 0,0 C 90 % 92 % 0 % 1024,9 hPa 0,0 l/m 0,0 km/h (0 Bft) NW 315 0 min 0,0 UV-I 7,7 C 9,2 C 0,0 km/h (0 Bft)
02.09.2012 01:52 9,3 C 21,8 C 10,6 C 9,3 C 9,2 C 0,0 C 90 % 92 % 0 % 1024,9 hPa 0,0 l/m 0,0 km/h (0 Bft) N-NO 22 0 min 0,0 UV-I 7,7 C 9,2 C 0,0 km/h (0 Bft)
02.09.2012 01:57 9,2 C 21,8 C 10,7 C 9,2 C 9,2 C 0,0 C 90 % 92 % 0 % 1024,9 hPa 0,0 l/m 0,0 km/h (0 Bft) N-NO 22 0 min 0,0 UV-I 7,6 C 9,2 C 0,0 km/h (0 Bft)
02.09.2012 02:02 9,3 C 21,8 C 10,5 C 9,2 C 9,0 C 0,0 C 90 % 92 % 0 % 1024,9 hPa 0,0 l/m 0,0 km/h (0 Bft) NW 315 0 min 0,0 UV-I 7,7 C 9,0 C 0,0 km/h (0 Bft)
02.09.2012 02:07 9,2 C 21,8 C 10,5 C 9,1 C 9,0 C 0,0 C 90 % 92 % 0 % 1024,9 hPa 0,0 l/m 0,0 km/h (0 Bft) O-NO 67 0 min 0,0 UV-I 7,6 C 9,0 C 0,0 km/h (0 Bft)
02.09.2012 02:12 9,2 C 21,8 C 10,5 C 9,2 C 9,1 C 0,0 C 90 % 92 % 0 % 1024,9 hPa 0,0 l/m 0,0 km/h (0 Bft) NW 315 0 min 0,0 UV-I 7,6 C 9,1 C 0,0 km/h (0 Bft)
02.09.2012 02:17 9,1 C 21,8 C 10,5 C 9,1 C 9,1 C 0,0 C 90 % 92 % 0 % 1024,9 hPa 0,0 l/m 0,0 km/h (0 Bft) W-SW 247 0 min 0,0 UV-I 7,5 C 9,1 C 0,0 km/h (0 Bft)
02.09.2012 02:22 9,0 C 21,8 C 10,4 C 9,0 C 8,9 C 0,0 C 90 % 92 % 0 % 1024,7 hPa 0,0 l/m 0,0 km/h (0 Bft) W 270 0 min 0,0 UV-I 7,4 C 8,9 C 0,0 km/h (0 Bft)
02.09.2012 02:27 9,1 C 21,7 C 10,4 C 9,0 C 8,8 C 0,0 C 90 % 92 % 0 % 1024,7 hPa 0,0 l/m 0,0 km/h (0 Bft) W 270 0 min 0,0 UV-I 7,5 C 8,8 C 0,0 km/h (0 Bft)
02.09.2012 02:32 8,9 C 21,7 C 10,4 C 8,9 C 8,8 C 0,0 C 90 % 92 % 0 % 1024,7 hPa 0,0 l/m 0,0 km/h (0 Bft) W-SW 247 0 min 0,0 UV-I 7,4 C 8,8 C 0,0 km/h (0 Bft)
02.09.2012 02:37 8,9 C 21,7 C 10,3 C 8,8 C 8,7 C 0,0 C 90 % 92 % 0 % 1024,7 hPa 0,0 l/m 0,0 km/h (0 Bft) W-SW 247 0 min 0,0 UV-I 7,4 C 8,7 C 0,0 km/h (0 Bft)
02.09.2012 02:42 8,8 C 21,6 C 10,2 C 8,7 C 8,6 C 0,0 C 90 % 92 % 0 % 1024,9 hPa 0,0 l/m 0,0 km/h (0 Bft) NW 315 0 min 0,0 UV-I 7,3 C 8,6 C 0,0 km/h (0 Bft)
02.09.2012 02:47 8,7 C 21,7 C 10,3 C 8,7 C 8,6 C 0,0 C 90 % 92 % 0 % 1024,9 hPa 0,0 l/m 0,0 km/h (0 Bft) NW 315 0 min 0,0 UV-I 7,2 C 8,6 C 0,0 km/h (0 Bft)
02.09.2012 02:52 8,7 C 21,6 C 10,0 C 8,7 C 8,6 C 0,0 C 90 % 92 % 0 % 1024,9 hPa 0,0 l/m 0,0 km/h (0 Bft) NW 315 0 min 0,0 UV-I 7,2 C 8,6 C 0,0 km/h (0 Bft)
02.09.2012 02:57 8,6 C 21,6 C 10,1 C 8,6 C 8,6 C 0,0 C 90 % 92 % 0 % 1024,9 hPa 0,0 l/m 0,0 km/h (0 Bft) SW 225 0 min 0,0 UV-I 7,1 C 8,6 C 0,0 km/h (0 Bft)
02.09.2012 03:02 8,6 C 21,6 C 10,0 C 8,6 C 8,5 C 0,0 C 90 % 92 % 0 % 1025,1 hPa 0,0 l/m 0,0 km/h (0 Bft) NW 315 0 min 0,0 UV-I 7,1 C 8,5 C 0,0 km/h (0 Bft)
02.09.2012 03:07 8,6 C 21,6 C 10,0 C 8,6 C 8,5 C 0,0 C 90 % 92 % 0 % 1025,1 hPa 0,0 l/m 0,0 km/h (0 Bft) NW 315 0 min 0,0 UV-I 7,1 C 8,5 C 0,0 km/h (0 Bft)
02.09.2012 03:12 8,5 C 21,5 C 9,9 C 8,5 C 8,5 C 0,0 C 90 % 92 % 0 % 1025,1 hPa 0,0 l/m 0,0 km/h (0 Bft) W-NW 292 0 min 0,0 UV-I 7,0 C 8,5 C 0,0 km/h (0 Bft)
02.09.2012 03:17 8,5 C 21,6 C 9,9 C 8,5 C 8,4 C 0,0 C 90 % 92 % 0 % 1025,1 hPa 0,0 l/m 0,0 km/h (0 Bft) NW 315 0 min 0,0 UV-I 7,0 C 8,4 C 0,0 km/h (0 Bft)
02.09.2012 03:22 8,4 C 21,6 C 10,0 C 8,5 C 8,5 C 0,1 C 90 % 92 % 0 % 1024,9 hPa 0,0 l/m 0,0 km/h (0 Bft) O-NO 67 0 min 0,0 UV-I 6,9 C 8,5 C 0,0 km/h (0 Bft)
02.09.2012 03:27 8,4 C 21,6 C 9,9 C 8,5 C 8,5 C 0,1 C 90 % 92 % 0 % 1024,9 hPa 0,0 l/m 0,0 km/h (0 Bft) O-NO 67 0 min 0,0 UV-I 6,9 C 8,5 C 0,0 km/h (0 Bft)
02.09.2012 03:32 8,5 C 21,5 C 9,8 C 8,5 C 8,4 C 0,0 C 90 % 92 % 0 % 1024,9 hPa 0,0 l/m 0,0 km/h (0 Bft) N-NW 337 0 min 0,0 UV-I 7,0 C 8,4 C 0,0 km/h (0 Bft)
02.09.2012 03:37 8,4 C 21,5 C 9,9 C 8,4 C 8,3 C 0,0 C 90 % 92 % 0 % 1024,9 hPa 0,0 l/m 0,0 km/h (0 Bft) N-NW 337 0 min 0,0 UV-I 6,9 C 8,3 C 0,0 km/h (0 Bft)
02.09.2012 03:42 8,3 C 21,5 C 9,7 C 8,3 C 8,2 C 0,0 C 90 % 92 % 0 % 1024,9 hPa 0,0 l/m 0,0 km/h (0 Bft) W-NW 292 0 min 0,0 UV-I 6,8 C 8,2 C 0,0 km/h (0 Bft)
02.09.2012 03:47 8,3 C 21,5 C 9,7 C 8,3 C 8,2 C 0,0 C 91 % 92 % 0 % 1024,9 hPa 0,0 l/m 0,0 km/h (0 Bft) W-NW 292 0 min 0,0 UV-I 6,9 C 8,2 C 0,0 km/h (0 Bft)
02.09.2012 03:52 8,2 C 21,5 C 9,7 C 8,2 C 8,1 C 0,0 C 91 % 92 % 0 % 1024,9 hPa 0,0 l/m 0,0 km/h (0 Bft) NW 315 0 min 0,0 UV-I 6,8 C 8,1 C 0,0 km/h (0 Bft)
02.09.2012 03:57 8,3 C 21,5 C 9,7 C 8,2 C 8,1 C 0,0 C 91 % 92 % 0 % 1024,9 hPa 0,0 l/m 0,0 km/h (0 Bft) O-NO 67 0 min 0,0 UV-I 6,9 C 8,1 C 0,0 km/h (0 Bft)
02.09.2012 04:02 8,3 C 21,5 C 9,6 C 8,3 C 8,2 C 0,0 C 91 % 92 % 0 % 1024,9 hPa 0,0 l/m 0,0 km/h (0 Bft) N-NW 337 0 min 0,0 UV-I 6,9 C 8,2 C 0,0 km/h (0 Bft)
02.09.2012 04:07 8,3 C 21,4 C 9,7 C 8,3 C 8,2 C 0,0 C 91 % 92 % 0 % 1024,9 hPa 0,0 l/m 0,0 km/h (0 Bft) NW 315 0 min 0,0 UV-I 6,9 C 8,2 C 0,0 km/h (0 Bft)
02.09.2012 04:12 8,2 C 21,5 C 9,6 C 8,2 C 8,1 C 0,0 C 91 % 92 % 0 % 1024,9 hPa 0,0 l/m 0,0 km/h (0 Bft) O-NO 67 0 min 0,0 UV-I 6,8 C 8,1 C 0,0 km/h (0 Bft)
02.09.2012 04:17 8,2 C 21,4 C 9,7 C 8,2 C 8,2 C 0,0 C 91 % 93 % 0 % 1024,9 hPa 0,0 l/m 0,0 km/h (0 Bft) O-NO 67 0 min 0,0 UV-I 6,8 C 8,2 C 0,0 km/h (0 Bft)
02.09.2012 04:22 8,1 C 21,4 C 9,7 C 8,2 C 8,2 C 0,1 C 91 % 93 % 0 % 1024,7 hPa 0,0 l/m 0,0 km/h (0 Bft) NW 315 0 min 0,0 UV-I 6,7 C 8,2 C 0,0 km/h (0 Bft)
02.09.2012 04:27 8,1 C 21,4 C 9,6 C 8,1 C 8,1 C 0,0 C 91 % 92 % 0 % 1024,7 hPa 0,0 l/m 0,0 km/h (0 Bft) S 180 0 min 0,0 UV-I 6,7 C 8,1 C 0,0 km/h (0 Bft)
02.09.2012 04:32 8,0 C 21,4 C 9,5 C 8,1 C 8,1 C 0,1 C 91 % 92 % 0 % 1024,7 hPa 0,0 l/m 0,0 km/h (0 Bft) NO 45 0 min 0,0 UV-I 6,6 C 8,1 C 0,0 km/h (0 Bft)
02.09.2012 04:37 8,1 C 21,3 C 9,5 C 8,1 C 8,0 C 0,0 C 91 % 92 % 0 % 1024,7 hPa 0,0 l/m 0,0 km/h (0 Bft) W-SW 247 0 min 0,0 UV-I 6,7 C 8,0 C 0,0 km/h (0 Bft)
02.09.2012 04:42 7,9 C 21,3 C 9,3 C 7,9 C 7,8 C 0,0 C 91 % 92 % 0 % 1024,8 hPa 0,0 l/m 0,0 km/h (0 Bft) W 270 0 min 0,0 UV-I 6,5 C 7,8 C 0,0 km/h (0 Bft)
02.09.2012 04:47 7,8 C 21,3 C 9,3 C 7,8 C 7,7 C 0,0 C 91 % 92 % 0 % 1024,8 hPa 0,0 l/m 0,0 km/h (0 Bft) W 270 0 min 0,0 UV-I 6,4 C 7,7 C 0,0 km/h (0 Bft)
02.09.2012 04:52 7,9 C 21,3 C 9,3 C 7,8 C 7,7 C 0,0 C 91 % 92 % 0 % 1024,8 hPa 0,0 l/m 0,0 km/h (0 Bft) O 90 0 min 0,0 UV-I 6,5 C 7,7 C 0,0 km/h (0 Bft)
02.09.2012 04:57 7,7 C 21,3 C 9,2 C 7,7 C 7,7 C 0,0 C 91 % 92 % 0 % 1024,8 hPa 0,0 l/m 0,0 km/h (0 Bft) NW 315 0 min 0,0 UV-I 6,3 C 7,7 C 0,0 km/h (0 Bft)
02.09.2012 05:02 7,7 C 21,4 C 9,2 C 7,7 C 7,7 C 0,0 C 91 % 92 % 0 % 1024,9 hPa 0,0 l/m 0,0 km/h (0 Bft) SW 225 0 min 0,0 UV-I 6,3 C 7,7 C 0,0 km/h (0 Bft)
02.09.2012 05:07 7,6 C 21,3 C 9,2 C 7,6 C 7,6 C 0,0 C 91 % 92 % 0 % 1024,9 hPa 0,0 l/m 0,0 km/h (0 Bft) W-SW 247 0 min 0,0 UV-I 6,2 C 7,6 C 0,0 km/h (0 Bft)
02.09.2012 05:12 7,6 C 21,3 C 9,1 C 7,5 C 7,4 C 0,0 C 91 % 92 % 0 % 1024,9 hPa 0,0 l/m 0,0 km/h (0 Bft) W 270 0 min 0,0 UV-I 6,2 C 7,4 C 0,0 km/h (0 Bft)
02.09.2012 05:17 7,5 C 21,3 C 9,1 C 7,5 C 7,4 C 0,0 C 91 % 92 % 0 % 1024,9 hPa 0,0 l/m 0,0 km/h (0 Bft) W 270 0 min 0,0 UV-I 6,1 C 7,4 C 0,0 km/h (0 Bft)
02.09.2012 05:22 7,4 C 21,3 C 9,1 C 7,4 C 7,4 C 0,0 C 91 % 92 % 0 % 1024,9 hPa 0,0 l/m 0,0 km/h (0 Bft) SW 225 0 min 0,0 UV-I 6,0 C 7,4 C 0,0 km/h (0 Bft)
02.09.2012 05:27 7,5 C 21,3 C 9,1 C 7,5 C 7,4 C 0,0 C 91 % 92 % 0 % 1024,9 hPa 0,0 l/m 0,0 km/h (0 Bft) NW 315 0 min 0,0 UV-I 6,1 C 7,4 C 0,0 km/h (0 Bft)
02.09.2012 05:32 7,3 C 21,3 C 8,9 C 7,4 C 7,4 C 0,1 C 91 % 92 % 0 % 1024,9 hPa 0,0 l/m 0,0 km/h (0 Bft) NW 315 0 min 0,0 UV-I 5,9 C 7,4 C 0,0 km/h (0 Bft)
02.09.2012 05:37 7,3 C 21,3 C 8,9 C 7,3 C 7,3 C 0,0 C 91 % 92 % 0 % 1024,9 hPa 0,0 l/m 0,0 km/h (0 Bft) N-NO 22 0 min 0,0 UV-I 5,9 C 7,3 C 0,0 km/h (0 Bft)
02.09.2012 05:42 7,3 C 21,3 C 8,8 C 7,3 C 7,2 C 0,0 C 91 % 92 % 0 % 1024,8 hPa 0,0 l/m 0,0 km/h (0 Bft) N-NO 22 0 min 0,0 UV-I 5,9 C 7,2 C 0,0 km/h (0 Bft)
02.09.2012 05:47 7,3 C 21,2 C 8,8 C 7,3 C 7,3 C 0,0 C 91 % 92 % 0 % 1024,8 hPa 0,0 l/m 0,0 km/h (0 Bft) N-NO 22 0 min 0,0 UV-I 5,9 C 7,3 C 0,0 km/h (0 Bft)
02.09.2012 05:52 7,2 C 21,2 C 8,8 C 7,2 C 7,2 C 0,0 C 91 % 92 % 0 % 1024,8 hPa 0,0 l/m 0,0 km/h (0 Bft) W 270 0 min 0,0 UV-I 5,8 C 7,2 C 0,0 km/h (0 Bft)
02.09.2012 05:57 7,2 C 21,2 C 8,8 C 7,2 C 7,1 C 0,0 C 91 % 92 % 0 % 1024,8 hPa 0,0 l/m 0,0 km/h (0 Bft) SW 225 0 min 0,0 UV-I 5,8 C 7,1 C 0,0 km/h (0 Bft)
02.09.2012 06:02 7,2 C 21,2 C 8,8 C 7,2 C 7,1 C 0,0 C 91 % 92 % 0 % 1025,1 hPa 0,0 l/m 0,0 km/h (0 Bft) W-SW 247 0 min 0,0 UV-I 5,8 C 7,1 C 0,0 km/h (0 Bft)
02.09.2012 06:07 7,1 C 21,2 C 8,8 C 7,1 C 7,1 C 0,0 C 91 % 92 % 0 % 1025,1 hPa 0,0 l/m 0,0 km/h (0 Bft) W 270 0 min 0,0 UV-I 5,7 C 7,1 C 0,0 km/h (0 Bft)
02.09.2012 06:12 7,1 C 21,2 C 8,8 C 7,1 C 7,1 C 0,0 C 91 % 92 % 0 % 1025,1 hPa 0,0 l/m 0,0 km/h (0 Bft) W-SW 247 0 min 0,0 UV-I 5,7 C 7,1 C 0,0 km/h (0 Bft)
02.09.2012 06:17 7,0 C 21,2 C 8,8 C 7,1 C 7,1 C 0,1 C 91 % 92 % 0 % 1025,1 hPa 0,0 l/m 0,0 km/h (0 Bft) O-NO 67 0 min 0,0 UV-I 5,6 C 7,1 C 0,0 km/h (0 Bft)
02.09.2012 06:22 7,1 C 21,2 C 8,6 C 7,1 C 7,1 C 0,0 C 91 % 92 % 0 % 1025,2 hPa 0,0 l/m 0,0 km/h (0 Bft) O-NO 67 0 min 0,0 UV-I 5,7 C 7,1 C 0,0 km/h (0 Bft)
02.09.2012 06:27 7,0 C 21,1 C 8,6 C 7,1 C 7,1 C 0,1 C 91 % 92 % 0 % 1025,2 hPa 0,0 l/m 0,0 km/h (0 Bft) O-NO 67 0 min 0,0 UV-I 5,6 C 7,1 C 0,0 km/h (0 Bft)
02.09.2012 06:32 7,1 C 21,1 C 8,6 C 7,1 C 7,1 C 0,0 C 91 % 92 % 0 % 1025,2 hPa 0,0 l/m 0,0 km/h (0 Bft) O-NO 67 0 min 0,0 UV-I 5,7 C 7,1 C 0,0 km/h (0 Bft)
02.09.2012 06:37 7,1 C 21,2 C 8,7 C 7,2 C 7,2 C 0,1 C 91 % 92 % 3 % 1025,2 hPa 0,0 l/m 0,0 km/h (0 Bft) O-NO 67 0 min 0,0 UV-I 5,7 C 7,2 C 0,0 km/h (0 Bft)
02.09.2012 06:42 7,0 C 21,1 C 8,7 C 7,1 C 7,1 C 0,1 C 91 % 92 % 3 % 1025,1 hPa 0,0 l/m 0,0 km/h (0 Bft) W-NW 292 0 min 0,0 UV-I 5,6 C 7,1 C 0,0 km/h (0 Bft)
02.09.2012 06:47 7,0 C 21,1 C 8,7 C 7,1 C 7,1 C 0,1 C 91 % 92 % 3 % 1025,1 hPa 0,0 l/m 0,0 km/h (0 Bft) W-NW 292 0 min 0,0 UV-I 5,6 C 7,1 C 0,0 km/h (0 Bft)
02.09.2012 06:52 7,1 C 21,1 C 8,7 C 7,2 C 7,2 C 0,1 C 91 % 92 % 3 % 1025,1 hPa 0,0 l/m 0,0 km/h (0 Bft) W-NW 292 0 min 0,0 UV-I 5,7 C 7,2 C 0,0 km/h (0 Bft)
02.09.2012 06:57 7,1 C 21,1 C 8,7 C 7,3 C 7,3 C 0,2 C 91 % 92 % 5 % 1025,1 hPa 0,0 l/m 0,0 km/h (0 Bft) O-NO 67 0 min 0,0 UV-I 5,7 C 7,3 C 0,0 km/h (0 Bft)
02.09.2012 07:02 7,1 C 21,1 C 8,7 C 7,5 C 7,5 C 0,4 C 91 % 92 % 11 % 1025,2 hPa 0,0 l/m 0,0 km/h (0 Bft) O-NO 67 0 min 0,0 UV-I 5,7 C 7,5 C 0,0 km/h (0 Bft)
02.09.2012 07:07 7,1 C 21,1 C 8,8 C 7,7 C 7,7 C 0,6 C 91 % 92 % 16 % 1025,2 hPa 0,0 l/m 0,0 km/h (0 Bft) N 360 0 min 0,0 UV-I 5,7 C 7,7 C 0,0 km/h (0 Bft)
02.09.2012 07:12 7,3 C 21,1 C 8,9 C 8,2 C 8,2 C 0,9 C 92 % 93 % 24 % 1025,2 hPa 0,0 l/m 0,0 km/h (0 Bft) O-NO 67 0 min 0,0 UV-I 6,1 C 8,2 C 0,0 km/h (0 Bft)
02.09.2012 07:17 7,5 C 21,1 C 9,1 C 8,8 C 8,8 C 1,3 C 92 % 93 % 34 % 1025,2 hPa 0,0 l/m 0,0 km/h (0 Bft) N 360 5 min 0,0 UV-I 6,3 C 8,8 C 0,0 km/h (0 Bft)
02.09.2012 07:22 7,6 C 21,0 C 9,5 C 9,9 C 9,9 C 2,3 C 92 % 93 % 61 % 1025,0 hPa 0,0 l/m 0,5 km/h (0 Bft) NW 315 5 min 0,0 UV-I 6,4 C 9,9 C 1,8 km/h (1 Bft)
02.09.2012 07:27 7,6 C 21,0 C 9,6 C 10,6 C 10,6 C 3,0 C 92 % 92 % 79 % 1025,0 hPa 0,0 l/m 0,5 km/h (0 Bft) W-SW 247 5 min 0,0 UV-I 6,4 C 10,6 C 0,0 km/h (0 Bft)
02.09.2012 07:32 7,8 C 21,0 C 9,9 C 11,6 C 11,6 C 3,8 C 92 % 93 % 100 % 1025,0 hPa 0,0 l/m 0,0 km/h (0 Bft) SW 225 5 min 0,0 UV-I 6,6 C 11,6 C 0,0 km/h (0 Bft)
02.09.2012 07:37 7,9 C 20,9 C 10,0 C 12,1 C 12,1 C 4,2 C 92 % 93 % 100 % 1025,0 hPa 0,0 l/m 0,0 km/h (0 Bft) W-SW 247 5 min 0,0 UV-I 6,7 C 12,1 C 0,0 km/h (0 Bft)
02.09.2012 07:42 8,0 C 21,0 C 10,2 C 12,9 C 12,9 C 4,9 C 92 % 92 % 100 % 1025,1 hPa 0,0 l/m 0,0 km/h (0 Bft) SW 225 5 min 0,0 UV-I 6,8 C 12,9 C 0,0 km/h (0 Bft)
02.09.2012 07:47 8,0 C 20,9 C 10,4 C 13,7 C 13,7 C 5,7 C 92 % 92 % 100 % 1025,1 hPa 0,0 l/m 0,0 km/h (0 Bft) SW 225 5 min 0,0 UV-I 6,8 C 13,7 C 0,0 km/h (0 Bft)
02.09.2012 07:52 8,3 C 20,9 C 10,7 C 14,6 C 14,6 C 6,3 C 92 % 92 % 100 % 1025,1 hPa 0,0 l/m 0,0 km/h (0 Bft) S-SW 202 5 min 0,0 UV-I 7,1 C 14,6 C 0,0 km/h (0 Bft)
02.09.2012 07:57 8,4 C 20,9 C 10,7 C 15,1 C 15,1 C 6,7 C 92 % 92 % 100 % 1025,1 hPa 0,0 l/m 0,0 km/h (0 Bft) SW 225 5 min 0,0 UV-I 7,2 C 15,1 C 0,0 km/h (0 Bft)
02.09.2012 08:02 8,7 C 20,9 C 10,7 C 15,9 C 15,9 C 7,2 C 93 % 91 % 100 % 1025,7 hPa 0,0 l/m 0,0 km/h (0 Bft) SW 225 5 min 0,0 UV-I 7,6 C 15,9 C 0,0 km/h (0 Bft)
02.09.2012 08:07 8,7 C 20,9 C 10,5 C 16,3 C 16,3 C 7,6 C 93 % 91 % 100 % 1025,7 hPa 0,0 l/m 0,0 km/h (0 Bft) SW 225 5 min 0,0 UV-I 7,6 C 16,3 C 0,0 km/h (0 Bft)
02.09.2012 08:12 8,9 C 20,9 C 10,5 C 17,2 C 17,2 C 8,3 C 93 % 91 % 100 % 1025,7 hPa 0,0 l/m 0,0 km/h (0 Bft) W 270 5 min 0,0 UV-I 7,8 C 17,2 C 0,0 km/h (0 Bft)
02.09.2012 08:17 9,1 C 20,9 C 10,6 C 17,8 C 17,8 C 8,7 C 93 % 91 % 100 % 1025,7 hPa 0,0 l/m 0,0 km/h (0 Bft) O-NO 67 5 min 0,0 UV-I 8,0 C 17,8 C 0,0 km/h (0 Bft)
02.09.2012 08:22 9,2 C 20,8 C 10,6 C 18,3 C 18,3 C 9,1 C 93 % 91 % 100 % 1025,7 hPa 0,0 l/m 0,0 km/h (0 Bft) W-SW 247 5 min 0,1 UV-I 8,1 C 18,3 C 0,0 km/h (0 Bft)
02.09.2012 08:27 9,5 C 20,8 C 10,7 C 18,8 C 18,8 C 9,3 C 93 % 91 % 100 % 1025,7 hPa 0,0 l/m 0,0 km/h (0 Bft) W 270 5 min 0,1 UV-I 8,4 C 18,8 C 0,0 km/h (0 Bft)
02.09.2012 08:32 9,6 C 20,9 C 10,8 C 19,0 C 19,0 C 9,4 C 93 % 92 % 100 % 1025,7 hPa 0,0 l/m 0,0 km/h (0 Bft) W 270 5 min 0,1 UV-I 8,5 C 19,0 C 0,0 km/h (0 Bft)
02.09.2012 08:37 9,8 C 20,8 C 10,8 C 19,0 C 19,0 C 9,2 C 93 % 92 % 100 % 1025,7 hPa 0,0 l/m 0,0 km/h (0 Bft) W-SW 247 5 min 0,2 UV-I 8,7 C 19,0 C 0,0 km/h (0 Bft)
02.09.2012 08:42 10,1 C 20,8 C 11,0 C 19,3 C 19,3 C 9,2 C 93 % 92 % 100 % 1025,6 hPa 0,0 l/m 0,0 km/h (0 Bft) W-SW 247 5 min 0,2 UV-I 9,0 C 19,3 C 0,0 km/h (0 Bft)
02.09.2012 08:47 10,2 C 20,7 C 11,1 C 19,5 C 19,5 C 9,3 C 93 % 92 % 100 % 1025,6 hPa 0,0 l/m 0,2 km/h (0 Bft) SW 225 5 min 0,3 UV-I 9,1 C 19,5 C 1,9 km/h (1 Bft)
02.09.2012 08:52 10,7 C 20,7 C 11,3 C 19,3 C 19,3 C 8,6 C 93 % 92 % 100 % 1025,6 hPa 0,0 l/m 1,3 km/h (1 Bft) W-SW 247 5 min 0,3 UV-I 9,6 C 19,3 C 0,0 km/h (0 Bft)
02.09.2012 08:57 10,9 C 20,7 C 11,5 C 19,6 C 19,6 C 8,7 C 93 % 92 % 100 % 1025,6 hPa 0,0 l/m 1,3 km/h (1 Bft) SW 225 5 min 0,4 UV-I 9,8 C 19,6 C 0,0 km/h (0 Bft)
02.09.2012 09:02 11,2 C 20,7 C 11,7 C 19,2 C 19,2 C 8,0 C 93 % 92 % 100 % 1025,8 hPa 0,0 l/m 0,2 km/h (0 Bft) W-SW 247 5 min 0,4 UV-I 10,1 C 19,2 C 0,0 km/h (0 Bft)
02.09.2012 09:07 11,5 C 20,7 C 11,7 C 18,4 C 18,4 C 6,9 C 93 % 92 % 100 % 1025,8 hPa 0,0 l/m 0,0 km/h (0 Bft) W-SW 247 5 min 0,5 UV-I 10,4 C 18,4 C 0,0 km/h (0 Bft)
02.09.2012 09:12 11,7 C 20,7 C 11,9 C 16,8 C 16,8 C 5,1 C 93 % 92 % 100 % 1025,8 hPa 0,0 l/m 0,0 km/h (0 Bft) S 180 5 min 0,6 UV-I 10,6 C 16,8 C 0,0 km/h (0 Bft)
02.09.2012 09:17 11,9 C 20,7 C 12,0 C 15,9 C 15,9 C 4,0 C 93 % 92 % 100 % 1025,8 hPa 0,0 l/m 0,0 km/h (0 Bft) S-SW 202 5 min 0,6 UV-I 10,8 C 15,9 C 0,0 km/h (0 Bft)
02.09.2012 09:22 12,2 C 20,7 C 12,2 C 15,4 C 15,4 C 3,2 C 92 % 92 % 84 % 1025,8 hPa 0,0 l/m 0,0 km/h (0 Bft) SW 225 0 min 0,7 UV-I 10,9 C 15,4 C 0,0 km/h (0 Bft)
02.09.2012 09:27 12,4 C 20,6 C 12,3 C 15,1 C 15,1 C 2,7 C 93 % 93 % 71 % 1025,8 hPa 0,0 l/m 0,0 km/h (0 Bft) W 270 0 min 0,7 UV-I 11,3 C 15,1 C 0,0 km/h (0 Bft)
02.09.2012 09:32 12,7 C 20,6 C 12,5 C 15,0 C 15,0 C 2,3 C 92 % 93 % 61 % 1025,8 hPa 0,0 l/m 0,5 km/h (0 Bft) W-SW 247 0 min 0,7 UV-I 11,4 C 15,0 C 2,3 km/h (1 Bft)
02.09.2012 09:37 12,8 C 20,6 C 12,7 C 15,0 C 15,0 C 2,2 C 92 % 93 % 58 % 1025,8 hPa 0,0 l/m 0,8 km/h (0 Bft) W 270 0 min 0,8 UV-I 11,5 C 15,0 C 0,0 km/h (0 Bft)
02.09.2012 09:42 13,0 C 20,6 C 12,9 C 15,3 C 15,3 C 2,3 C 91 % 93 % 61 % 1025,5 hPa 0,0 l/m 0,8 km/h (0 Bft) NW 315 0 min 0,8 UV-I 11,6 C 15,3 C 0,0 km/h (0 Bft)
02.09.2012 09:47 13,2 C 20,6 C 13,1 C 15,4 C 15,4 C 2,2 C 91 % 93 % 58 % 1025,5 hPa 0,0 l/m 0,6 km/h (0 Bft) S-SO 157 0 min 0,8 UV-I 11,8 C 15,4 C 2,6 km/h (1 Bft)
02.09.2012 09:52 13,5 C 20,4 C 13,5 C 15,7 C 15,7 C 2,2 C 91 % 93 % 58 % 1025,5 hPa 0,0 l/m 0,5 km/h (0 Bft) O-SO 112 0 min 0,9 UV-I 12,1 C 15,7 C 0,0 km/h (0 Bft)
02.09.2012 09:57 13,6 C 20,4 C 13,7 C 15,9 C 15,9 C 2,3 C 90 % 93 % 61 % 1025,5 hPa 0,0 l/m 1,4 km/h (1 Bft) O-NO 67 0 min 0,9 UV-I 12,0 C 15,9 C 3,2 km/h (1 Bft)
02.09.2012 10:02 14,1 C 20,4 C 14,1 C 16,2 C 16,2 C 2,1 C 88 % 92 % 55 % 1025,7 hPa 0,0 l/m 3,2 km/h (1 Bft) O 90 0 min 1,0 UV-I 12,1 C 16,2 C 3,2 km/h (1 Bft)
02.09.2012 10:07 14,4 C 20,4 C 14,5 C 16,4 C 16,4 C 2,0 C 86 % 92 % 53 % 1025,7 hPa 0,0 l/m 3,9 km/h (1 Bft) O-NO 67 0 min 1,0 UV-I 12,1 C 16,4 C 4,5 km/h (1 Bft)
02.09.2012 10:12 14,8 C 20,4 C 14,7 C 16,6 C 16,6 C 1,8 C 84 % 91 % 47 % 1025,7 hPa 0,0 l/m 3,5 km/h (1 Bft) NO 45 0 min 1,1 UV-I 12,1 C 16,6 C 2,3 km/h (1 Bft)
02.09.2012 10:17 15,0 C 20,4 C 14,8 C 16,9 C 16,9 C 1,9 C 83 % 91 % 50 % 1025,7 hPa 0,0 l/m 3,1 km/h (1 Bft) N-NW 337 0 min 1,1 UV-I 12,1 C 16,9 C 5,0 km/h (1 Bft)
02.09.2012 10:22 15,3 C 20,4 C 15,1 C 17,5 C 17,5 C 2,2 C 82 % 90 % 58 % 1025,2 hPa 0,0 l/m 2,1 km/h (1 Bft) NW 315 0 min 1,2 UV-I 12,2 C 17,5 C 3,1 km/h (1 Bft)
02.09.2012 10:27 15,3 C 20,4 C 15,0 C 17,7 C 17,7 C 2,4 C 82 % 90 % 63 % 1025,2 hPa 0,0 l/m 1,6 km/h (1 Bft) NO 45 0 min 1,2 UV-I 12,2 C 17,7 C 0,0 km/h (0 Bft)
02.09.2012 10:32 15,5 C 20,3 C 15,2 C 17,6 C 17,6 C 2,1 C 82 % 89 % 55 % 1025,2 hPa 0,0 l/m 1,3 km/h (1 Bft) NO 45 0 min 1,3 UV-I 12,4 C 17,6 C 0,0 km/h (0 Bft)
02.09.2012 10:37 15,5 C 20,4 C 15,3 C 17,7 C 17,7 C 2,2 C 81 % 88 % 58 % 1025,2 hPa 0,0 l/m 1,6 km/h (1 Bft) NW 315 0 min 1,5 UV-I 12,3 C 17,7 C 2,7 km/h (1 Bft)
02.09.2012 10:42 15,9 C 20,3 C 15,6 C 17,8 C 17,8 C 1,9 C 79 % 88 % 50 % 1025,6 hPa 0,0 l/m 2,1 km/h (1 Bft) O-NO 67 0 min 1,4 UV-I 12,3 C 17,8 C 8,5 km/h (2 Bft)
02.09.2012 10:47 16,2 C 20,3 C 16,0 C 17,7 C 17,7 C 1,5 C 77 % 85 % 39 % 1025,6 hPa 0,0 l/m 3,7 km/h (1 Bft) O-NO 67 0 min 1,4 UV-I 12,2 C 17,7 C 5,0 km/h (1 Bft)
02.09.2012 10:52 16,7 C 20,3 C 16,2 C 17,8 C 17,8 C 1,1 C 72 % 82 % 29 % 1025,6 hPa 0,0 l/m 6,8 km/h (2 Bft) O 90 0 min 1,4 UV-I 11,6 C 17,8 C 10,3 km/h (2 Bft)
02.09.2012 10:57 16,8 C 20,3 C 16,4 C 17,8 C 17,8 C 1,0 C 74 % 82 % 26 % 1025,6 hPa 0,0 l/m 5,8 km/h (2 Bft) O 90 0 min 1,5 UV-I 12,1 C 17,8 C 3,1 km/h (1 Bft)
02.09.2012 11:02 16,9 C 20,3 C 16,5 C 18,0 C 18,0 C 1,1 C 75 % 82 % 29 % 1025,3 hPa 0,0 l/m 4,3 km/h (1 Bft) O-NO 67 0 min 1,5 UV-I 12,4 C 18,0 C 3,4 km/h (1 Bft)
02.09.2012 11:07 17,2 C 20,3 C 16,7 C 18,2 C 18,2 C 1,0 C 73 % 79 % 26 % 1025,3 hPa 0,0 l/m 4,3 km/h (1 Bft) O-NO 67 0 min 1,6 UV-I 12,3 C 18,2 C 6,1 km/h (2 Bft)
02.09.2012 11:12 17,4 C 20,3 C 16,8 C 18,3 C 18,3 C 0,9 C 70 % 77 % 24 % 1025,3 hPa 0,0 l/m 6,4 km/h (2 Bft) O 90 0 min 1,6 UV-I 11,9 C 18,3 C 11,3 km/h (2 Bft)
02.09.2012 11:17 17,5 C 20,3 C 17,1 C 18,4 C 18,4 C 0,9 C 69 % 76 % 24 % 1025,3 hPa 0,0 l/m 6,8 km/h (2 Bft) O 90 0 min 1,6 UV-I 11,7 C 18,4 C 7,7 km/h (2 Bft)
02.09.2012 11:22 17,7 C 20,3 C 17,2 C 18,5 C 18,5 C 0,8 C 70 % 75 % 21 % 1025,4 hPa 0,0 l/m 7,2 km/h (2 Bft) O-NO 67 0 min 1,7 UV-I 12,2 C 18,5 C 10,5 km/h (2 Bft)
02.09.2012 11:27 17,7 C 20,3 C 17,3 C 18,6 C 18,6 C 0,9 C 69 % 76 % 24 % 1025,4 hPa 0,0 l/m 6,9 km/h (2 Bft) O 90 0 min 1,7 UV-I 11,9 C 18,6 C 11,4 km/h (2 Bft)
02.09.2012 11:32 17,9 C 20,3 C 17,5 C 18,8 C 18,8 C 0,9 C 70 % 76 % 24 % 1025,4 hPa 0,0 l/m 6,1 km/h (2 Bft) O-NO 67 0 min 1,8 UV-I 12,3 C 18,8 C 6,9 km/h (2 Bft)
02.09.2012 11:37 18,0 C 20,3 C 17,6 C 19,0 C 19,0 C 1,0 C 69 % 76 % 26 % 1025,4 hPa 0,0 l/m 5,8 km/h (2 Bft) O 90 0 min 1,9 UV-I 12,2 C 19,0 C 4,7 km/h (1 Bft)
02.09.2012 11:42 18,1 C 20,2 C 17,8 C 19,1 C 19,1 C 1,0 C 70 % 76 % 26 % 1025,1 hPa 0,0 l/m 5,1 km/h (1 Bft) O-NO 67 0 min 1,9 UV-I 12,5 C 19,1 C 3,9 km/h (1 Bft)
02.09.2012 11:47 18,3 C 20,2 C 17,9 C 19,1 C 19,1 C 0,8 C 69 % 76 % 21 % 1025,1 hPa 0,0 l/m 5,1 km/h (1 Bft) O 90 0 min 1,9 UV-I 12,5 C 19,1 C 8,5 km/h (2 Bft)
02.09.2012 11:52 18,4 C 20,2 C 18,1 C 19,4 C 19,4 C 1,0 C 68 % 74 % 26 % 1025,1 hPa 0,0 l/m 5,0 km/h (1 Bft) O-NO 67 0 min 2,0 UV-I 12,4 C 19,4 C 8,7 km/h (2 Bft)
02.09.2012 11:57 18,5 C 20,3 C 18,1 C 19,5 C 19,5 C 1,0 C 68 % 75 % 26 % 1025,1 hPa 0,0 l/m 5,8 km/h (2 Bft) O-NO 67 0 min 2,1 UV-I 12,5 C 19,5 C 5,6 km/h (1 Bft)
02.09.2012 12:02 18,5 C 20,2 C 18,2 C 19,5 C 19,5 C 1,0 C 70 % 75 % 26 % 1025,0 hPa 0,0 l/m 5,0 km/h (1 Bft) NW 315 0 min 2,1 UV-I 12,9 C 19,5 C 3,7 km/h (1 Bft)
02.09.2012 12:07 18,8 C 20,3 C 18,5 C 20,4 C 20,4 C 1,6 C 67 % 74 % 42 % 1025,0 hPa 0,0 l/m 4,0 km/h (1 Bft) O-SO 112 0 min 2,1 UV-I 12,5 C 20,4 C 5,0 km/h (1 Bft)
02.09.2012 12:12 18,6 C 20,3 C 18,4 C 20,8 C 20,8 C 2,2 C 69 % 74 % 58 % 1025,0 hPa 0,0 l/m 4,8 km/h (1 Bft) O 90 0 min 2,2 UV-I 12,8 C 20,8 C 6,4 km/h (2 Bft)
02.09.2012 12:17 18,7 C 20,3 C 18,2 C 20,9 C 20,9 C 2,2 C 67 % 74 % 58 % 1025,0 hPa 0,0 l/m 5,6 km/h (1 Bft) O-NO 67 0 min 2,3 UV-I 12,4 C 20,9 C 9,0 km/h (2 Bft)
02.09.2012 12:22 18,7 C 20,3 C 18,3 C 21,2 C 21,2 C 2,5 C 68 % 74 % 66 % 1024,4 hPa 0,0 l/m 6,0 km/h (2 Bft) O-NO 67 0 min 2,2 UV-I 12,7 C 21,2 C 12,6 km/h (3 Bft)
02.09.2012 12:27 18,9 C 20,3 C 18,4 C 22,0 C 22,0 C 3,1 C 68 % 72 % 82 % 1024,4 hPa 0,0 l/m 5,5 km/h (1 Bft) O-SO 112 0 min 2,5 UV-I 12,9 C 22,0 C 3,4 km/h (1 Bft)
02.09.2012 12:32 19,1 C 20,3 C 18,5 C 23,1 C 23,1 C 4,0 C 66 % 72 % 100 % 1024,4 hPa 0,0 l/m 4,5 km/h (1 Bft) S-SO 157 5 min 2,9 UV-I 12,6 C 23,1 C 2,6 km/h (1 Bft)
02.09.2012 12:37 19,2 C 20,3 C 18,5 C 23,2 C 23,2 C 4,0 C 67 % 72 % 100 % 1024,4 hPa 0,0 l/m 3,2 km/h (1 Bft) O 90 5 min 3,4 UV-I 12,9 C 23,2 C 3,2 km/h (1 Bft)
02.09.2012 12:42 19,4 C 20,4 C 18,8 C 23,6 C 23,6 C 4,2 C 66 % 72 % 100 % 1024,7 hPa 0,0 l/m 3,7 km/h (1 Bft) O-SO 112 5 min 3,8 UV-I 12,9 C 23,6 C 6,3 km/h (2 Bft)
02.09.2012 12:53 19,2 C 20,4 C 18,9 C 23,2 C 23,2 C 4,0 C 65 % 70 % 100 % 1024,7 hPa 0,0 l/m 7,1 km/h (2 Bft) O 90 11 min 4,2 UV-I 12,5 C 23,2 C 7,6 km/h (2 Bft)
02.09.2012 12:57 19,2 C 20,4 C 18,8 C 22,5 C 22,5 C 3,3 C 66 % 70 % 87 % 1024,7 hPa 0,0 l/m 5,8 km/h (2 Bft) O-NO 67 4 min 3,2 UV-I 12,7 C 22,5 C 3,2 km/h (1 Bft)
02.09.2012 13:02 19,1 C 20,4 C 18,7 C 21,7 C 21,7 C 2,6 C 65 % 70 % 68 % 1024,9 hPa 0,0 l/m 5,3 km/h (1 Bft) O-NO 67 0 min 2,6 UV-I 12,4 C 21,7 C 8,9 km/h (2 Bft)
02.09.2012 13:07 19,1 C 20,4 C 18,8 C 21,4 C 21,4 C 2,3 C 66 % 72 % 61 % 1024,9 hPa 0,0 l/m 6,4 km/h (2 Bft) O-NO 67 0 min 2,4 UV-I 12,6 C 21,4 C 7,2 km/h (2 Bft)
02.09.2012 13:12 19,2 C 20,4 C 19,0 C 21,4 C 21,4 C 2,2 C 67 % 72 % 58 % 1024,9 hPa 0,0 l/m 6,6 km/h (2 Bft) NO 45 0 min 2,2 UV-I 12,9 C 21,4 C 5,8 km/h (2 Bft)
02.09.2012 13:17 19,4 C 20,4 C 19,3 C 22,1 C 22,1 C 2,7 C 64 % 72 % 71 % 1024,9 hPa 0,0 l/m 7,2 km/h (2 Bft) O-NO 67 0 min 3,1 UV-I 12,4 C 22,1 C 11,3 km/h (2 Bft)
02.09.2012 13:22 19,5 C 20,4 C 19,5 C 22,8 C 22,8 C 3,3 C 64 % 71 % 87 % 1024,6 hPa 0,0 l/m 8,9 km/h (2 Bft) O-NO 67 5 min 3,7 UV-I 12,5 C 22,8 C 10,1 km/h (2 Bft)
02.09.2012 13:27 19,5 C 20,4 C 19,5 C 22,6 C 22,6 C 3,1 C 65 % 71 % 82 % 1024,6 hPa 0,0 l/m 9,2 km/h (2 Bft) O 90 0 min 3,7 UV-I 12,7 C 22,6 C 9,0 km/h (2 Bft)
02.09.2012 13:32 19,1 C 20,4 C 19,1 C 21,5 C 21,5 C 2,4 C 66 % 72 % 63 % 1024,6 hPa 0,0 l/m 8,0 km/h (2 Bft) O-NO 67 0 min 2,6 UV-I 12,6 C 21,5 C 10,3 km/h (2 Bft)
02.09.2012 13:37 19,0 C 20,5 C 18,9 C 21,0 C 21,0 C 2,0 C 67 % 72 % 53 % 1024,6 hPa 0,0 l/m 7,7 km/h (2 Bft) O-NO 67 0 min 2,3 UV-I 12,7 C 21,0 C 9,0 km/h (2 Bft)
02.09.2012 13:42 19,0 C 20,5 C 18,8 C 20,5 C 20,5 C 1,5 C 67 % 72 % 39 % 1024,6 hPa 0,0 l/m 7,1 km/h (2 Bft) O-NO 67 0 min 2,3 UV-I 12,7 C 20,5 C 6,4 km/h (2 Bft)
02.09.2012 13:47 18,9 C 20,5 C 18,7 C 20,3 C 20,3 C 1,4 C 68 % 73 % 37 % 1024,6 hPa 0,0 l/m 7,1 km/h (2 Bft) O-NO 67 0 min 2,2 UV-I 12,9 C 20,3 C 9,3 km/h (2 Bft)
02.09.2012 13:52 18,9 C 20,5 C 18,6 C 20,3 C 20,3 C 1,4 C 67 % 74 % 37 % 1024,6 hPa 0,0 l/m 6,8 km/h (2 Bft) S-SO 157 0 min 2,1 UV-I 12,6 C 20,3 C 7,4 km/h (2 Bft)
02.09.2012 13:57 18,9 C 20,5 C 18,7 C 20,4 C 20,4 C 1,5 C 67 % 73 % 39 % 1024,6 hPa 0,0 l/m 6,6 km/h (2 Bft) O-NO 67 0 min 2,3 UV-I 12,6 C 20,4 C 7,2 km/h (2 Bft)
02.09.2012 14:02 18,9 C 20,6 C 18,9 C 20,6 C 20,6 C 1,7 C 68 % 74 % 45 % 1024,4 hPa 0,0 l/m 6,4 km/h (2 Bft) O-NO 67 0 min 2,3 UV-I 12,9 C 20,6 C 6,6 km/h (2 Bft)
02.09.2012 14:07 18,9 C 20,6 C 18,8 C 20,7 C 20,7 C 1,8 C 66 % 73 % 47 % 1024,4 hPa 0,0 l/m 6,6 km/h (2 Bft) O-NO 67 0 min 2,2 UV-I 12,4 C 20,7 C 6,1 km/h (2 Bft)
02.09.2012 14:12 18,9 C 20,6 C 18,8 C 20,8 C 20,8 C 1,9 C 67 % 74 % 50 % 1024,4 hPa 0,0 l/m 5,3 km/h (1 Bft) O-NO 67 0 min 2,2 UV-I 12,6 C 20,8 C 5,5 km/h (1 Bft)
02.09.2012 14:17 18,9 C 20,5 C 18,8 C 20,9 C 20,9 C 2,0 C 67 % 74 % 53 % 1024,4 hPa 0,0 l/m 4,8 km/h (1 Bft) O-NO 67 0 min 2,1 UV-I 12,6 C 20,9 C 6,1 km/h (2 Bft)
02.09.2012 14:22 18,9 C 20,5 C 18,9 C 20,8 C 20,8 C 1,9 C 67 % 72 % 50 % 1024,3 hPa 0,0 l/m 5,5 km/h (1 Bft) SO 135 0 min 2,0 UV-I 12,6 C 20,8 C 5,8 km/h (2 Bft)
02.09.2012 14:27 18,9 C 20,5 C 18,9 C 21,0 C 21,0 C 2,1 C 68 % 74 % 55 % 1024,3 hPa 0,0 l/m 5,3 km/h (1 Bft) O 90 0 min 2,0 UV-I 12,9 C 21,0 C 5,8 km/h (2 Bft)
02.09.2012 14:32 19,1 C 20,5 C 19,1 C 21,4 C 21,4 C 2,3 C 67 % 72 % 61 % 1024,3 hPa 0,0 l/m 4,8 km/h (1 Bft) O-NO 67 0 min 2,3 UV-I 12,8 C 21,4 C 7,1 km/h (2 Bft)
02.09.2012 14:37 19,1 C 20,6 C 18,9 C 21,2 C 21,2 C 2,1 C 67 % 72 % 55 % 1024,3 hPa 0,0 l/m 5,3 km/h (1 Bft) O-NO 67 0 min 2,3 UV-I 12,8 C 21,2 C 2,7 km/h (1 Bft)
02.09.2012 14:42 19,1 C 20,6 C 18,9 C 21,2 C 21,2 C 2,1 C 66 % 72 % 55 % 1024,2 hPa 0,0 l/m 5,5 km/h (1 Bft) O-NO 67 0 min 2,0 UV-I 12,6 C 21,2 C 5,3 km/h (1 Bft)
02.09.2012 14:47 18,9 C 20,6 C 18,8 C 21,0 C 21,0 C 2,1 C 65 % 71 % 55 % 1024,2 hPa 0,0 l/m 5,6 km/h (1 Bft) O-NO 67 0 min 2,0 UV-I 12,2 C 21,0 C 7,7 km/h (2 Bft)
02.09.2012 14:52 18,9 C 20,6 C 18,9 C 20,9 C 20,9 C 2,0 C 66 % 71 % 53 % 1024,2 hPa 0,0 l/m 6,6 km/h (2 Bft) O-NO 67 0 min 2,0 UV-I 12,4 C 20,9 C 6,0 km/h (2 Bft)
02.09.2012 14:57 19,0 C 20,6 C 18,9 C 21,0 C 21,0 C 2,0 C 67 % 71 % 53 % 1024,2 hPa 0,0 l/m 5,6 km/h (1 Bft) O-SO 112 0 min 2,1 UV-I 12,7 C 21,0 C 2,6 km/h (1 Bft)
02.09.2012 15:02 19,0 C 20,6 C 19,1 C 21,6 C 21,6 C 2,6 C 67 % 72 % 68 % 1023,9 hPa 0,0 l/m 4,2 km/h (1 Bft) O-SO 112 0 min 2,2 UV-I 12,7 C 21,6 C 3,7 km/h (1 Bft)
02.09.2012 15:07 19,1 C 20,6 C 19,0 C 21,6 C 21,6 C 2,5 C 67 % 72 % 66 % 1023,9 hPa 0,0 l/m 4,5 km/h (1 Bft) O-SO 112 0 min 2,1 UV-I 12,8 C 21,6 C 4,3 km/h (1 Bft)
02.09.2012 15:12 19,1 C 20,6 C 18,9 C 21,4 C 21,4 C 2,3 C 67 % 71 % 61 % 1023,9 hPa 0,0 l/m 4,8 km/h (1 Bft) O-NO 67 0 min 2,0 UV-I 12,8 C 21,4 C 3,2 km/h (1 Bft)
02.09.2012 15:17 19,0 C 20,7 C 18,9 C 21,5 C 21,5 C 2,5 C 67 % 71 % 66 % 1023,9 hPa 0,0 l/m 4,2 km/h (1 Bft) O-SO 112 0 min 1,9 UV-I 12,7 C 21,5 C 3,5 km/h (1 Bft)
02.09.2012 15:22 19,3 C 20,7 C 19,0 C 21,8 C 21,8 C 2,5 C 68 % 72 % 66 % 1023,6 hPa 0,0 l/m 2,3 km/h (1 Bft) O 90 0 min 1,8 UV-I 13,2 C 21,8 C 3,9 km/h (1 Bft)
02.09.2012 15:27 19,3 C 20,7 C 19,1 C 22,3 C 22,3 C 3,0 C 68 % 72 % 79 % 1023,6 hPa 0,0 l/m 1,9 km/h (1 Bft) O 90 0 min 2,0 UV-I 13,2 C 22,3 C 3,5 km/h (1 Bft)
02.09.2012 15:32 19,3 C 20,7 C 19,0 C 22,3 C 22,3 C 3,0 C 68 % 72 % 79 % 1023,6 hPa 0,0 l/m 2,3 km/h (1 Bft) O-SO 112 0 min 1,8 UV-I 13,2 C 22,3 C 1,9 km/h (1 Bft)
02.09.2012 15:37 19,2 C 20,7 C 18,8 C 22,0 C 22,0 C 2,8 C 66 % 72 % 74 % 1023,6 hPa 0,0 l/m 2,6 km/h (1 Bft) SO 135 0 min 1,7 UV-I 12,7 C 22,0 C 2,9 km/h (1 Bft)
02.09.2012 15:42 19,3 C 20,8 C 18,8 C 21,6 C 21,6 C 2,3 C 68 % 73 % 61 % 1023,4 hPa 0,0 l/m 3,4 km/h (1 Bft) O 90 0 min 1,4 UV-I 13,2 C 21,6 C 7,1 km/h (2 Bft)
02.09.2012 15:47 19,2 C 20,8 C 19,1 C 21,7 C 21,7 C 2,5 C 68 % 73 % 66 % 1023,4 hPa 0,0 l/m 4,0 km/h (1 Bft) O-NO 67 0 min 1,6 UV-I 13,1 C 21,7 C 6,8 km/h (2 Bft)
02.09.2012 15:52 19,3 C 20,8 C 19,2 C 22,4 C 22,4 C 3,1 C 68 % 73 % 82 % 1023,4 hPa 0,0 l/m 4,7 km/h (1 Bft) O 90 0 min 1,9 UV-I 13,2 C 22,4 C 4,8 km/h (1 Bft)
02.09.2012 15:57 19,5 C 20,8 C 19,3 C 22,4 C 22,4 C 2,9 C 68 % 73 % 76 % 1023,4 hPa 0,0 l/m 4,2 km/h (1 Bft) O-NO 67 0 min 1,8 UV-I 13,4 C 22,4 C 3,2 km/h (1 Bft)
02.09.2012 16:04 19,5 C 20,8 C 19,2 C 22,2 C 22,2 C 2,7 C 66 % 71 % 71 % 1023,2 hPa 0,0 l/m 4,0 km/h (1 Bft) O-NO 67 0 min 1,4 UV-I 13,0 C 22,2 C 2,7 km/h (1 Bft)
02.09.2012 16:07 19,5 C 20,8 C 19,2 C 22,1 C 22,1 C 2,6 C 66 % 72 % 68 % 1023,2 hPa 0,0 l/m 4,2 km/h (1 Bft) O-SO 112 0 min 1,4 UV-I 13,0 C 22,1 C 5,0 km/h (1 Bft)
02.09.2012 16:12 19,5 C 20,9 C 19,3 C 21,9 C 21,9 C 2,4 C 66 % 73 % 63 % 1023,2 hPa 0,0 l/m 4,5 km/h (1 Bft) NO 45 0 min 1,2 UV-I 13,0 C 21,9 C 6,9 km/h (2 Bft)
02.09.2012 16:17 19,4 C 20,9 C 19,3 C 21,6 C 21,6 C 2,2 C 67 % 72 % 58 % 1023,2 hPa 0,0 l/m 5,3 km/h (1 Bft) O 90 0 min 1,1 UV-I 13,1 C 21,6 C 5,3 km/h (1 Bft)
02.09.2012 16:22 19,4 C 20,9 C 19,3 C 21,2 C 21,2 C 1,8 C 65 % 73 % 47 % 1023,3 hPa 0,0 l/m 5,3 km/h (1 Bft) O-NO 67 0 min 0,9 UV-I 12,6 C 21,2 C 7,7 km/h (2 Bft)
02.09.2012 16:27 19,3 C 20,9 C 19,2 C 20,9 C 20,9 C 1,6 C 64 % 73 % 42 % 1023,3 hPa 0,0 l/m 5,3 km/h (1 Bft) O-SO 112 0 min 0,8 UV-I 12,3 C 20,9 C 7,1 km/h (2 Bft)
02.09.2012 16:32 19,2 C 20,9 C 19,0 C 20,6 C 20,6 C 1,4 C 65 % 72 % 37 % 1023,3 hPa 0,0 l/m 5,5 km/h (1 Bft) O 90 0 min 0,7 UV-I 12,5 C 20,6 C 2,9 km/h (1 Bft)
02.09.2012 16:37 19,3 C 20,9 C 18,9 C 20,4 C 20,4 C 1,1 C 65 % 72 % 29 % 1023,3 hPa 0,0 l/m 5,1 km/h (1 Bft) O-NO 67 0 min 0,6 UV-I 12,6 C 20,4 C 6,0 km/h (2 Bft)
02.09.2012 16:42 19,1 C 20,9 C 18,8 C 20,1 C 20,1 C 1,0 C 66 % 73 % 26 % 1023,2 hPa 0,0 l/m 4,8 km/h (1 Bft) S-SO 157 0 min 0,5 UV-I 12,6 C 20,1 C 7,1 km/h (2 Bft)
02.09.2012 16:47 19,1 C 20,9 C 18,8 C 19,9 C 19,9 C 0,8 C 66 % 72 % 21 % 1023,2 hPa 0,0 l/m 5,0 km/h (1 Bft) O-NO 67 0 min 0,3 UV-I 12,6 C 19,9 C 4,0 km/h (1 Bft)
02.09.2012 16:52 19,0 C 21,0 C 18,6 C 19,6 C 19,6 C 0,6 C 67 % 73 % 16 % 1023,2 hPa 0,0 l/m 5,1 km/h (1 Bft) O 90 0 min 0,2 UV-I 12,7 C 19,6 C 6,1 km/h (2 Bft)
02.09.2012 16:57 18,9 C 21,0 C 18,5 C 19,4 C 19,4 C 0,5 C 68 % 74 % 13 % 1023,2 hPa 0,0 l/m 4,8 km/h (1 Bft) O 90 0 min 0,1 UV-I 12,9 C 19,4 C 3,9 km/h (1 Bft)
02.09.2012 17:02 18,9 C 21,0 C 18,4 C 19,2 C 19,2 C 0,3 C 68 % 74 % 8 % 1023,1 hPa 0,0 l/m 4,3 km/h (1 Bft) O-NO 67 0 min 0,1 UV-I 12,9 C 19,2 C 3,9 km/h (1 Bft)
02.09.2012 17:07 18,8 C 21,0 C 18,2 C 19,1 C 19,1 C 0,3 C 69 % 75 % 8 % 1023,1 hPa 0,0 l/m 3,5 km/h (1 Bft) O-SO 112 0 min 0,1 UV-I 13,0 C 19,1 C 3,9 km/h (1 Bft)
02.09.2012 17:12 18,6 C 21,0 C 18,3 C 19,0 C 19,0 C 0,4 C 69 % 76 % 11 % 1023,1 hPa 0,0 l/m 3,2 km/h (1 Bft) O-NO 67 0 min 0,0 UV-I 12,8 C 19,0 C 2,9 km/h (1 Bft)
02.09.2012 17:17 18,6 C 21,0 C 18,1 C 19,0 C 19,0 C 0,4 C 69 % 77 % 11 % 1023,1 hPa 0,0 l/m 2,9 km/h (1 Bft) NO 45 0 min 0,0 UV-I 12,8 C 19,0 C 2,7 km/h (1 Bft)
02.09.2012 17:22 18,7 C 21,0 C 18,1 C 18,8 C 18,8 C 0,1 C 70 % 77 % 3 % 1022,8 hPa 0,0 l/m 2,9 km/h (1 Bft) O-NO 67 0 min 0,0 UV-I 13,1 C 18,8 C 3,9 km/h (1 Bft)
02.09.2012 17:27 18,5 C 21,1 C 18,0 C 18,8 C 18,8 C 0,3 C 70 % 77 % 8 % 1022,8 hPa 0,0 l/m 3,5 km/h (1 Bft) O-NO 67 0 min 0,0 UV-I 12,9 C 18,8 C 5,5 km/h (1 Bft)
02.09.2012 17:32 18,5 C 21,1 C 18,0 C 18,8 C 18,8 C 0,3 C 70 % 77 % 8 % 1022,8 hPa 0,0 l/m 3,7 km/h (1 Bft) O-NO 67 0 min 0,0 UV-I 12,9 C 18,8 C 3,5 km/h (1 Bft)
02.09.2012 17:37 18,5 C 21,1 C 18,0 C 18,8 C 18,8 C 0,3 C 70 % 77 % 8 % 1022,8 hPa 0,0 l/m 3,4 km/h (1 Bft) O-NO 67 0 min 0,0 UV-I 12,9 C 18,8 C 2,3 km/h (1 Bft)
02.09.2012 17:42 18,4 C 21,1 C 17,9 C 18,7 C 18,7 C 0,3 C 70 % 77 % 8 % 1022,8 hPa 0,0 l/m 3,1 km/h (1 Bft) O-NO 67 0 min 0,0 UV-I 12,8 C 18,7 C 3,2 km/h (1 Bft)
02.09.2012 17:47 18,4 C 21,1 C 17,9 C 18,6 C 18,6 C 0,2 C 71 % 78 % 5 % 1022,8 hPa 0,0 l/m 2,6 km/h (1 Bft) O 90 0 min 0,0 UV-I 13,0 C 18,6 C 1,8 km/h (1 Bft)
02.09.2012 17:52 18,4 C 21,1 C 17,9 C 18,6 C 18,6 C 0,2 C 71 % 78 % 5 % 1022,8 hPa 0,0 l/m 1,3 km/h (1 Bft) O-NO 67 0 min 0,0 UV-I 13,0 C 18,6 C 2,1 km/h (1 Bft)
02.09.2012 17:57 18,4 C 21,1 C 17,9 C 18,6 C 18,6 C 0,2 C 72 % 78 % 5 % 1022,8 hPa 0,0 l/m 1,1 km/h (1 Bft) N-NO 22 0 min 0,0 UV-I 13,3 C 18,6 C 0,0 km/h (0 Bft)
02.09.2012 18:02 18,3 C 21,2 C 17,7 C 18,5 C 18,5 C 0,2 C 73 % 79 % 5 % 1022,8 hPa 0,0 l/m 0,8 km/h (0 Bft) N-NW 337 0 min 0,0 UV-I 13,4 C 18,5 C 0,0 km/h (0 Bft)
02.09.2012 18:07 18,3 C 21,2 C 17,6 C 18,4 C 18,4 C 0,1 C 73 % 79 % 3 % 1022,8 hPa 0,0 l/m 0,2 km/h (0 Bft) NO 45 0 min 0,0 UV-I 13,4 C 18,4 C 0,0 km/h (0 Bft)
02.09.2012 18:12 18,3 C 21,2 C 17,7 C 18,3 C 18,3 C 0,0 C 73 % 80 % 0 % 1022,8 hPa 0,0 l/m 0,6 km/h (0 Bft) O-NO 67 0 min 0,0 UV-I 13,4 C 18,3 C 1,9 km/h (1 Bft)
02.09.2012 18:17 18,2 C 21,2 C 17,6 C 18,2 C 18,2 C 0,0 C 73 % 80 % 0 % 1022,8 hPa 0,0 l/m 1,8 km/h (1 Bft) O-NO 67 0 min 0,0 UV-I 13,3 C 18,2 C 5,3 km/h (1 Bft)
02.09.2012 18:22 18,1 C 21,2 C 17,6 C 18,2 C 18,2 C 0,1 C 73 % 79 % 3 % 1022,6 hPa 0,0 l/m 2,7 km/h (1 Bft) O-NO 67 0 min 0,0 UV-I 13,2 C 18,2 C 3,9 km/h (1 Bft)
02.09.2012 18:27 18,0 C 21,3 C 17,6 C 18,2 C 18,2 C 0,2 C 72 % 79 % 5 % 1022,6 hPa 0,0 l/m 3,5 km/h (1 Bft) O-NO 67 0 min 0,0 UV-I 12,9 C 18,2 C 3,7 km/h (1 Bft)
02.09.2012 18:32 18,1 C 21,3 C 17,5 C 18,1 C 18,1 C 0,0 C 73 % 79 % 0 % 1022,6 hPa 0,0 l/m 2,6 km/h (1 Bft) N 360 0 min 0,0 UV-I 13,2 C 18,1 C 0,0 km/h (0 Bft)
02.09.2012 18:37 18,0 C 21,3 C 17,5 C 18,0 C 18,0 C 0,0 C 74 % 80 % 0 % 1022,6 hPa 0,0 l/m 1,1 km/h (1 Bft) O-NO 67 0 min 0,0 UV-I 13,3 C 18,0 C 0,0 km/h (0 Bft)
02.09.2012 18:42 17,9 C 21,3 C 17,3 C 17,9 C 17,9 C 0,0 C 73 % 80 % 0 % 1022,6 hPa 0,0 l/m 0,3 km/h (0 Bft) O-NO 67 0 min 0,0 UV-I 13,0 C 17,9 C 0,0 km/h (0 Bft)
02.09.2012 18:47 17,9 C 21,3 C 17,3 C 17,9 C 17,9 C 0,0 C 74 % 80 % 0 % 1022,6 hPa 0,0 l/m 0,8 km/h (0 Bft) O-NO 67 0 min 0,0 UV-I 13,2 C 17,9 C 2,7 km/h (1 Bft)
02.09.2012 18:52 17,9 C 21,4 C 17,2 C 17,9 C 17,8 C 0,0 C 74 % 81 % 0 % 1022,6 hPa 0,0 l/m 1,4 km/h (1 Bft) O-NO 67 0 min 0,0 UV-I 13,2 C 17,8 C 1,6 km/h (1 Bft)
02.09.2012 18:57 17,8 C 21,4 C 17,3 C 17,8 C 17,7 C 0,0 C 74 % 81 % 0 % 1022,6 hPa 0,0 l/m 1,3 km/h (1 Bft) O-NO 67 0 min 0,0 UV-I 13,1 C 17,7 C 0,0 km/h (0 Bft)
02.09.2012 19:02 17,7 C 21,4 C 17,1 C 17,7 C 17,7 C 0,0 C 74 % 81 % 0 % 1022,4 hPa 0,0 l/m 0,5 km/h (0 Bft) N 360 0 min 0,0 UV-I 13,0 C 17,7 C 0,0 km/h (0 Bft)
02.09.2012 19:07 17,6 C 21,4 C 17,2 C 17,7 C 17,7 C 0,1 C 75 % 81 % 3 % 1022,4 hPa 0,0 l/m 0,5 km/h (0 Bft) O-NO 67 0 min 0,0 UV-I 13,1 C 17,7 C 0,0 km/h (0 Bft)
02.09.2012 19:12 17,6 C 21,4 C 17,1 C 17,6 C 17,6 C 0,0 C 75 % 81 % 0 % 1022,4 hPa 0,0 l/m 0,3 km/h (0 Bft) O-NO 67 0 min 0,0 UV-I 13,1 C 17,6 C 1,6 km/h (1 Bft)
02.09.2012 19:17 17,7 C 21,4 C 17,1 C 17,7 C 17,6 C 0,0 C 75 % 81 % 0 % 1022,4 hPa 0,0 l/m 0,3 km/h (0 Bft) O-NO 67 0 min 0,0 UV-I 13,2 C 17,6 C 0,0 km/h (0 Bft)
02.09.2012 19:22 17,6 C 21,4 C 17,1 C 17,6 C 17,5 C 0,0 C 76 % 82 % 0 % 1022,6 hPa 0,0 l/m 0,2 km/h (0 Bft) O-NO 67 0 min 0,0 UV-I 13,3 C 17,5 C 0,0 km/h (0 Bft)
02.09.2012 19:27 17,6 C 21,4 C 17,0 C 17,5 C 17,4 C 0,0 C 76 % 82 % 0 % 1022,6 hPa 0,0 l/m 0,0 km/h (0 Bft) NO 45 0 min 0,0 UV-I 13,3 C 17,4 C 0,0 km/h (0 Bft)
02.09.2012 19:32 17,5 C 21,4 C 16,9 C 17,4 C 17,2 C 0,0 C 76 % 82 % 0 % 1022,6 hPa 0,0 l/m 0,0 km/h (0 Bft) NO 45 0 min 0,0 UV-I 13,2 C 17,2 C 0,0 km/h (0 Bft)
02.09.2012 19:37 17,5 C 21,4 C 16,8 C 17,4 C 17,1 C 0,0 C 77 % 82 % 0 % 1022,6 hPa 0,0 l/m 0,0 km/h (0 Bft) NO 45 0 min 0,0 UV-I 13,4 C 17,1 C 0,0 km/h (0 Bft)
02.09.2012 19:42 17,3 C 21,4 C 16,7 C 17,2 C 16,9 C 0,0 C 77 % 82 % 0 % 1022,3 hPa 0,0 l/m 0,0 km/h (0 Bft) NO 45 0 min 0,0 UV-I 13,2 C 16,9 C 0,0 km/h (0 Bft)
02.09.2012 19:47 17,2 C 21,4 C 16,7 C 17,1 C 16,8 C 0,0 C 77 % 82 % 0 % 1022,3 hPa 0,0 l/m 0,0 km/h (0 Bft) N-NO 22 0 min 0,0 UV-I 13,1 C 16,8 C 0,0 km/h (0 Bft)
02.09.2012 19:52 17,2 C 21,4 C 16,7 C 17,0 C 16,6 C 0,0 C 78 % 83 % 0 % 1022,3 hPa 0,0 l/m 0,0 km/h (0 Bft) O-NO 67 0 min 0,0 UV-I 13,3 C 16,6 C 0,0 km/h (0 Bft)
02.09.2012 19:57 17,1 C 21,5 C 16,5 C 16,9 C 16,4 C 0,0 C 78 % 83 % 0 % 1022,3 hPa 0,0 l/m 0,0 km/h (0 Bft) NO 45 0 min 0,0 UV-I 13,2 C 16,4 C 0,0 km/h (0 Bft)
02.09.2012 20:02 16,9 C 21,5 C 16,5 C 16,7 C 16,2 C 0,0 C 78 % 84 % 0 % 1022,4 hPa 0,0 l/m 0,0 km/h (0 Bft) N-NO 22 0 min 0,0 UV-I 13,0 C 16,2 C 0,0 km/h (0 Bft)
02.09.2012 20:07 16,9 C 21,5 C 16,5 C 16,7 C 16,2 C 0,0 C 78 % 84 % 0 % 1022,4 hPa 0,0 l/m 0,0 km/h (0 Bft) O-NO 67 0 min 0,0 UV-I 13,0 C 16,2 C 0,0 km/h (0 Bft)
02.09.2012 20:12 16,5 C 21,5 C 16,3 C 16,4 C 16,1 C 0,0 C 80 % 85 % 0 % 1022,4 hPa 0,0 l/m 0,0 km/h (0 Bft) O 90 0 min 0,0 UV-I 13,0 C 16,1 C 0,0 km/h (0 Bft)
02.09.2012 20:17 16,3 C 21,6 C 16,1 C 16,2 C 15,9 C 0,0 C 80 % 85 % 0 % 1022,4 hPa 0,0 l/m 0,0 km/h (0 Bft) NO 45 0 min 0,0 UV-I 12,8 C 15,9 C 0,0 km/h (0 Bft)
02.09.2012 20:22 16,0 C 21,6 C 16,0 C 15,9 C 15,6 C 0,0 C 81 % 85 % 0 % 1022,6 hPa 0,0 l/m 0,0 km/h (0 Bft) N 360 0 min 0,0 UV-I 12,7 C 15,6 C 0,0 km/h (0 Bft)
02.09.2012 20:27 15,9 C 21,6 C 16,0 C 15,7 C 15,4 C 0,0 C 81 % 85 % 0 % 1022,6 hPa 0,0 l/m 0,0 km/h (0 Bft) N 360 0 min 0,0 UV-I 12,6 C 15,4 C 0,0 km/h (0 Bft)
02.09.2012 20:32 15,6 C 21,6 C 15,9 C 15,4 C 15,1 C 0,0 C 81 % 85 % 0 % 1022,6 hPa 0,0 l/m 0,0 km/h (0 Bft) N 360 0 min 0,0 UV-I 12,3 C 15,1 C 0,0 km/h (0 Bft)
02.09.2012 20:37 15,6 C 21,6 C 15,8 C 15,4 C 15,0 C 0,0 C 81 % 85 % 0 % 1022,6 hPa 0,0 l/m 0,0 km/h (0 Bft) N 360 0 min 0,0 UV-I 12,3 C 15,0 C 0,0 km/h (0 Bft)
02.09.2012 20:42 15,4 C 21,6 C 15,6 C 15,2 C 14,7 C 0,0 C 81 % 86 % 0 % 1022,9 hPa 0,0 l/m 0,0 km/h (0 Bft) O 90 0 min 0,0 UV-I 12,2 C 14,7 C 0,0 km/h (0 Bft)
02.09.2012 20:47 15,3 C 21,6 C 15,5 C 15,1 C 14,6 C 0,0 C 81 % 86 % 0 % 1022,9 hPa 0,0 l/m 0,0 km/h (0 Bft) NO 45 0 min 0,0 UV-I 12,1 C 14,6 C 0,0 km/h (0 Bft)
02.09.2012 20:52 15,0 C 21,6 C 15,3 C 14,8 C 14,4 C 0,0 C 82 % 86 % 0 % 1022,9 hPa 0,0 l/m 0,0 km/h (0 Bft) NO 45 0 min 0,0 UV-I 12,0 C 14,4 C 0,0 km/h (0 Bft)
02.09.2012 20:57 14,8 C 21,6 C 15,2 C 14,6 C 14,2 C 0,0 C 82 % 86 % 0 % 1022,9 hPa 0,0 l/m 0,0 km/h (0 Bft) O-NO 67 0 min 0,0 UV-I 11,8 C 14,2 C 0,0 km/h (0 Bft)
02.09.2012 21:02 14,6 C 21,6 C 15,0 C 14,3 C 13,8 C 0,0 C 82 % 87 % 0 % 1022,9 hPa 0,0 l/m 0,0 km/h (0 Bft) S 180 0 min 0,0 UV-I 11,6 C 13,8 C 0,0 km/h (0 Bft)
02.09.2012 21:07 14,5 C 21,6 C 14,9 C 14,3 C 13,8 C 0,0 C 82 % 87 % 0 % 1022,9 hPa 0,0 l/m 0,0 km/h (0 Bft) O-NO 67 0 min 0,0 UV-I 11,5 C 13,8 C 0,0 km/h (0 Bft)
02.09.2012 21:12 14,3 C 21,8 C 14,7 C 14,1 C 13,7 C 0,0 C 83 % 87 % 0 % 1022,9 hPa 0,0 l/m 0,3 km/h (0 Bft) NO 45 0 min 0,0 UV-I 11,5 C 13,7 C 0,0 km/h (0 Bft)
02.09.2012 21:17 14,1 C 21,8 C 14,7 C 13,9 C 13,6 C 0,0 C 83 % 87 % 0 % 1022,9 hPa 0,0 l/m 0,3 km/h (0 Bft) NW 315 0 min 0,0 UV-I 11,3 C 13,6 C 1,9 km/h (1 Bft)
02.09.2012 21:22 14,0 C 21,8 C 14,5 C 13,9 C 13,6 C 0,0 C 84 % 88 % 0 % 1022,7 hPa 0,0 l/m 0,2 km/h (0 Bft) N-NO 22 0 min 0,0 UV-I 11,3 C 13,6 C 0,0 km/h (0 Bft)
02.09.2012 21:27 13,9 C 21,8 C 14,5 C 13,8 C 13,6 C 0,0 C 84 % 88 % 0 % 1022,7 hPa 0,0 l/m 0,2 km/h (0 Bft) NO 45 0 min 0,0 UV-I 11,2 C 13,6 C 0,0 km/h (0 Bft)
02.09.2012 21:32 13,8 C 21,8 C 14,5 C 13,7 C 13,4 C 0,0 C 85 % 88 % 0 % 1022,7 hPa 0,0 l/m 0,0 km/h (0 Bft) O 90 0 min 0,0 UV-I 11,3 C 13,4 C 0,0 km/h (0 Bft)
02.09.2012 21:37 13,6 C 21,8 C 14,3 C 13,5 C 13,4 C 0,0 C 85 % 88 % 0 % 1022,7 hPa 0,0 l/m 0,0 km/h (0 Bft) O-NO 67 0 min 0,0 UV-I 11,1 C 13,4 C 0,0 km/h (0 Bft)
02.09.2012 21:42 13,6 C 21,8 C 14,3 C 13,5 C 13,3 C 0,0 C 86 % 88 % 0 % 1022,9 hPa 0,0 l/m 0,2 km/h (0 Bft) NW 315 0 min 0,0 UV-I 11,3 C 13,3 C 0,0 km/h (0 Bft)
02.09.2012 21:47 13,5 C 21,8 C 14,1 C 13,4 C 13,3 C 0,0 C 86 % 89 % 0 % 1022,9 hPa 0,0 l/m 0,2 km/h (0 Bft) N-NW 337 0 min 0,0 UV-I 11,2 C 13,3 C 0,0 km/h (0 Bft)
02.09.2012 21:52 13,5 C 21,8 C 14,0 C 13,4 C 13,1 C 0,0 C 86 % 89 % 0 % 1022,9 hPa 0,0 l/m 0,2 km/h (0 Bft) O-NO 67 0 min 0,0 UV-I 11,2 C 13,1 C 0,0 km/h (0 Bft)
02.09.2012 21:57 13,2 C 21,8 C 13,9 C 13,2 C 13,1 C 0,0 C 86 % 89 % 0 % 1022,9 hPa 0,0 l/m 0,0 km/h (0 Bft) O-NO 67 0 min 0,0 UV-I 10,9 C 13,1 C 0,0 km/h (0 Bft)
02.09.2012 22:02 13,2 C 21,8 C 13,9 C 13,2 C 13,1 C 0,0 C 86 % 89 % 0 % 1023,2 hPa 0,0 l/m 0,2 km/h (0 Bft) W-NW 292 0 min 0,0 UV-I 10,9 C 13,1 C 1,8 km/h (1 Bft)
02.09.2012 22:07 13,1 C 21,8 C 13,9 C 13,1 C 13,0 C 0,0 C 87 % 89 % 0 % 1023,2 hPa 0,0 l/m 0,2 km/h (0 Bft) SO 135 0 min 0,0 UV-I 11,0 C 13,0 C 0,0 km/h (0 Bft)
02.09.2012 22:12 13,1 C 21,8 C 13,8 C 13,1 C 13,0 C 0,0 C 87 % 89 % 0 % 1023,2 hPa 0,0 l/m 0,0 km/h (0 Bft) O-SO 112 0 min 0,0 UV-I 11,0 C 13,0 C 0,0 km/h (0 Bft)
02.09.2012 22:17 12,9 C 21,8 C 13,7 C 12,9 C 12,9 C 0,0 C 87 % 89 % 0 % 1023,2 hPa 0,0 l/m 0,0 km/h (0 Bft) W 270 0 min 0,0 UV-I 10,8 C 12,9 C 0,0 km/h (0 Bft)
02.09.2012 22:22 12,9 C 21,8 C 13,6 C 12,9 C 12,8 C 0,0 C 87 % 89 % 0 % 1023,3 hPa 0,0 l/m 0,0 km/h (0 Bft) NW 315 0 min 0,0 UV-I 10,8 C 12,8 C 0,0 km/h (0 Bft)
02.09.2012 22:27 12,8 C 21,8 C 13,6 C 12,7 C 12,6 C 0,0 C 87 % 89 % 0 % 1023,3 hPa 0,0 l/m 0,0 km/h (0 Bft) W-SW 247 0 min 0,0 UV-I 10,7 C 12,6 C 0,0 km/h (0 Bft)
02.09.2012 22:32 12,7 C 21,8 C 13,4 C 12,6 C 12,5 C 0,0 C 87 % 89 % 0 % 1023,3 hPa 0,0 l/m 0,0 km/h (0 Bft) N-NO 22 0 min 0,0 UV-I 10,6 C 12,5 C 0,0 km/h (0 Bft)
02.09.2012 22:37 12,7 C 21,8 C 13,3 C 12,6 C 12,5 C 0,0 C 87 % 89 % 0 % 1023,3 hPa 0,0 l/m 0,0 km/h (0 Bft) W-NW 292 0 min 0,0 UV-I 10,6 C 12,5 C 0,0 km/h (0 Bft)
02.09.2012 22:42 12,6 C 21,9 C 13,4 C 12,5 C 12,4 C 0,0 C 88 % 90 % 0 % 1023,2 hPa 0,0 l/m 0,0 km/h (0 Bft) O-NO 67 0 min 0,0 UV-I 10,7 C 12,4 C 0,0 km/h (0 Bft)
02.09.2012 22:47 12,5 C 21,8 C 13,2 C 12,4 C 12,3 C 0,0 C 88 % 90 % 0 % 1023,2 hPa 0,0 l/m 0,0 km/h (0 Bft) O-NO 67 0 min 0,0 UV-I 10,6 C 12,3 C 0,0 km/h (0 Bft)
02.09.2012 22:52 12,4 C 21,8 C 13,2 C 12,4 C 12,3 C 0,0 C 88 % 90 % 0 % 1023,2 hPa 0,0 l/m 0,0 km/h (0 Bft) O-NO 67 0 min 0,0 UV-I 10,5 C 12,3 C 0,0 km/h (0 Bft)
02.09.2012 22:57 12,3 C 21,8 C 13,2 C 12,2 C 12,1 C 0,0 C 88 % 90 % 0 % 1023,2 hPa 0,0 l/m 0,0 km/h (0 Bft) O-NO 67 0 min 0,0 UV-I 10,4 C 12,1 C 0,0 km/h (0 Bft)
02.09.2012 23:02 12,3 C 21,8 C 13,1 C 12,2 C 12,1 C 0,0 C 88 % 90 % 0 % 1023,3 hPa 0,0 l/m 0,0 km/h (0 Bft) W-NW 292 0 min 0,0 UV-I 10,4 C 12,1 C 0,0 km/h (0 Bft)
02.09.2012 23:07 12,3 C 21,8 C 13,1 C 12,2 C 12,1 C 0,0 C 88 % 90 % 0 % 1023,3 hPa 0,0 l/m 0,0 km/h (0 Bft) O-NO 67 0 min 0,0 UV-I 10,4 C 12,1 C 0,0 km/h (0 Bft)
02.09.2012 23:12 12,1 C 21,8 C 12,8 C 12,1 C 12,0 C 0,0 C 88 % 90 % 0 % 1023,3 hPa 0,0 l/m 0,0 km/h (0 Bft) NO 45 0 min 0,0 UV-I 10,2 C 12,0 C 0,0 km/h (0 Bft)
02.09.2012 23:17 12,0 C 21,8 C 12,8 C 12,0 C 11,9 C 0,0 C 88 % 90 % 0 % 1023,3 hPa 0,0 l/m 0,0 km/h (0 Bft) W 270 0 min 0,0 UV-I 10,1 C 11,9 C 0,0 km/h (0 Bft)
02.09.2012 23:22 12,0 C 21,7 C 12,8 C 11,9 C 11,8 C 0,0 C 88 % 91 % 0 % 1023,4 hPa 0,0 l/m 0,0 km/h (0 Bft) W-SW 247 0 min 0,0 UV-I 10,1 C 11,8 C 0,0 km/h (0 Bft)
02.09.2012 23:27 11,9 C 21,8 C 12,9 C 11,8 C 11,7 C 0,0 C 88 % 91 % 0 % 1023,4 hPa 0,0 l/m 0,0 km/h (0 Bft) W-SW 247 0 min 0,0 UV-I 10,0 C 11,7 C 0,0 km/h (0 Bft)
02.09.2012 23:32 11,9 C 21,8 C 12,8 C 11,8 C 11,7 C 0,0 C 88 % 91 % 0 % 1023,4 hPa 0,0 l/m 0,0 km/h (0 Bft) O 90 0 min 0,0 UV-I 10,0 C 11,7 C 0,0 km/h (0 Bft)
02.09.2012 23:37 11,7 C 21,8 C 12,7 C 11,7 C 11,7 C 0,0 C 88 % 90 % 0 % 1023,4 hPa 0,0 l/m 0,0 km/h (0 Bft) O-NO 67 0 min 0,0 UV-I 9,8 C 11,7 C 0,0 km/h (0 Bft)
02.09.2012 23:42 11,6 C 21,8 C 12,7 C 11,7 C 11,7 C 0,1 C 89 % 90 % 0 % 1023,4 hPa 0,0 l/m 0,0 km/h (0 Bft) N-NW 337 0 min 0,0 UV-I 9,8 C 11,7 C 0,0 km/h (0 Bft)
02.09.2012 23:47 11,6 C 21,8 C 12,7 C 11,6 C 11,6 C 0,0 C 89 % 90 % 0 % 1023,4 hPa 0,0 l/m 0,0 km/h (0 Bft) O 90 0 min 0,0 UV-I 9,8 C 11,6 C 0,0 km/h (0 Bft)
02.09.2012 23:52 11,6 C 21,8 C 12,5 C 11,7 C 11,7 C 0,1 C 89 % 90 % 0 % 1023,4 hPa 0,0 l/m 0,0 km/h (0 Bft) N-NO 22 0 min 0,0 UV-I 9,8 C 11,7 C 0,0 km/h (0 Bft)
02.09.2012 23:57 11,6 C 21,7 C 12,5 C 11,6 C 11,6 C 0,0 C 89 % 90 % 0 % 1023,4 hPa 0,0 l/m 0,0 km/h (0 Bft) W-SW 247 0 min 0,0 UV-I 9,8 C 11,6 C 0,0 km/h (0 Bft)
_ Min-Zeit 06:17 11:42 06:22 06:07 05:57 00:02 13:17 12:53 00:02 19:42 - 00:02 - - - 00:02 06:17 05:57 00:02
Minimum _ 7,0 C 20,2 C 8,6 C 7,1 C 7,1 C 0,0 C 64 % 70 % 0 % 1022,3 hPa - 0,0 km/h (0 Bft) - - - 0,0 UV-I 5,6 C 7,1 C 0,0 km/h (0 Bft)
_ Max-Zeit 13:22 00:02 13:22 12:42 12:42 08:32 08:02 04:17 07:32 09:02 00:02 13:27 - - 12:53 12:53 15:57 12:42 12:22
Maximum _ 19,5 C 22,0 C 19,5 C 23,6 C 23,6 C 9,4 C 93 % 93 % 100 % 1025,8 hPa 0,0 l/m 9,2 km/h
O (2 Bft)
- - 11 min 4,2 UV-I 13,4 C 23,6 C 12,6 km/h
O-NO (3 Bft)
Durchschnitt _ 13,6 C 21,1 C 14,1 C 14,9 C 14,8 C 1,3 C 81 % 85 % 26 % 1024,3 hPa #0,0 l/m 1,7 km/h (1 Bft) O-NO - #2:40 h 1,6 UV-I 10,3 C 14,8 C 2,0 km/h (1 Bft)
2012 www.wetterstation-wechselburg.de